Weather History for Nenana, AK

Change the Weather History Date:

Tuesday, May 14, 2013

  Actual Average Record
Temperature  
Mean Temperature 40 °F -  
Max Temperature 50 °F 57 °F 77 °F (1973)
Min Temperature 30 °F 34 °F 30 °F (2013)
Degree Days  
Heating Degree Days 25    
Moisture  
Dew Point 16 °F    
Average Humidity 48    
Maximum Humidity 90    
Minimum Humidity 28    
Precipitation  
Precipitation 0.28 in - - ()
Sea Level Pressure  
Sea Level Pressure 29.71 in    
Wind  
Wind Speed 4 mph (NW)    
Max Wind Speed 12 mph    
Max Gust Speed -    
Visibility 10 miles    
Events Rain    
Averages and records for this station are not official NWS values.
T = Trace of Precipitation, MM = Missing Value Source: NWS Daily Summary

Daily Weather History Graph

Daily Weather History Graph

Search for Another Location

Airport:

Trip Planner

Search our weather history database for the weather conditions in past years. The results will help you decide how hot, cold, wet, or windy it might be!

Date:

Astronomy

May. 14, 2013 Rise Set
Actual Time 4:38 AM AKDT 11:09 PM AKDT
Civil Twilight 2:49 AM AKDT 1:04 AM AKDT
Nautical Twilight Sun does not rise Sun does not rise
Astronomical Twilight Sun does not rise Sun does not rise
Moon 8:37 AM AKDT (5/14) 2:15 AM AKDT (5/14)
Length of Visible Light 22h 14m
Length of Day
18h 30m
Waxing Crescent, 20% of the Moon is Illuminated
May 14
Waxing Crescent
May 17
First Quarter
May 24
Full
May 31
Last Quarter
Jun 8
New

Hourly Weather History & Observations

Time (AKDT) Temp. Windchill Dew Point Humidity Pressure Visibility Wind Dir Wind Speed Gust Speed Precip Events Conditions
12:53 AM 28.0 °F - 10.9 °F 49% 29.67 in 10.0 mi Calm Calm - N/A   Clear
1:53 AM 28.0 °F 24.2 °F 10.9 °F 49% 29.68 in 10.0 mi NNW 3.5 mph - N/A   Overcast
2:53 AM 27.0 °F 21.6 °F 12.0 °F 53% 29.68 in 10.0 mi NW 4.6 mph - N/A   Mostly Cloudy
3:53 AM 27.0 °F 21.6 °F 12.9 °F 56% 29.68 in 10.0 mi NW 4.6 mph - N/A   Overcast
4:53 AM 26.1 °F 20.5 °F 12.9 °F 58% 29.69 in 10.0 mi NW 4.6 mph - N/A   Overcast
5:53 AM 26.1 °F 21.9 °F 12.9 °F 58% 29.69 in 10.0 mi NW 3.5 mph - N/A   Overcast
6:53 AM 26.1 °F 21.9 °F 10.9 °F 53% 29.69 in 10.0 mi NW 3.5 mph - N/A   Clear
7:53 AM 27.0 °F 20.5 °F 10.0 °F 49% 29.70 in 10.0 mi NW 5.8 mph - N/A   Clear
8:53 AM 28.9 °F 22.8 °F 10.0 °F 45% 29.70 in 10.0 mi NW 5.8 mph - N/A   Clear
9:53 AM 30.9 °F 26.2 °F 10.9 °F 43% 29.70 in 10.0 mi Variable 4.6 mph - N/A   Clear
10:53 AM 32.0 °F 28.7 °F 12.0 °F 44% 29.69 in 10.0 mi SSE 3.5 mph - N/A   Clear
11:53 AM 34.0 °F - 10.9 °F 38% 29.69 in 10.0 mi Calm Calm - N/A   Clear
12:53 PM 35.1 °F 32.2 °F 10.9 °F 37% 29.68 in 10.0 mi NNW 3.5 mph - N/A   Clear
1:53 PM 36.0 °F 29.0 °F 10.0 °F 34% 29.67 in 10.0 mi WNW 9.2 mph - N/A   Clear
2:53 PM 37.0 °F 33.3 °F 10.0 °F 33% 29.67 in 10.0 mi NW 4.6 mph - N/A   Clear
3:53 PM 37.9 °F 34.4 °F 12.0 °F 35% 29.66 in 10.0 mi Variable 4.6 mph - N/A   Clear
4:53 PM 39.9 °F 36.7 °F 10.0 °F 29% 29.65 in 10.0 mi Variable 4.6 mph - N/A   Clear
5:53 PM 39.0 °F 35.7 °F 9.0 °F 29% 29.65 in 10.0 mi Variable 4.6 mph - N/A   Clear
6:53 PM 39.9 °F 35.8 °F 10.0 °F 29% 29.65 in 10.0 mi SW 5.8 mph - N/A   Clear
7:53 PM 39.9 °F - 9.0 °F 28% 29.65 in 10.0 mi Calm Calm - N/A   Clear
8:53 PM 39.9 °F 37.8 °F 10.0 °F 29% 29.64 in 10.0 mi SE 3.5 mph - N/A   Clear
9:53 PM 39.9 °F - 9.0 °F 28% 29.64 in 10.0 mi Calm Calm - N/A   Clear
10:53 PM 35.1 °F - 12.0 °F 39% 29.65 in 10.0 mi Calm Calm - N/A   Clear
11:53 PM 30.9 °F - 19.0 °F 61% 29.66 in 10.0 mi Calm Calm - N/A   Clear